Location: Asheville, NC
(35.6000°N, 82.5500°W)
Time: 18:53:26
(UTC-05:00)

ISS - Pass Details

Date: 04 December 2020
Orbit: 418 x 419 km, 51.6° (Epoch: 17 January)

Event Time Altitude Azimuth Distance (km) Brightness Sun altitude
Rises 18:23:20 0° 326° (NW) 2,361 0.3 -13.3°
Reaches altitude 10° 18:26:24 10° 357° (N) 1,495 -1.1 -13.9°
Enters shadow 18:27:32 13° 16° (NNE) 1,351 -1.5 -14.1°
